Western Head, Nova Scotia

7:36 PM ADT on May 27, 2018 (GMT -0300)
Western Head

Weather History for CWWE - February, 2013

Change the Weather History Date:

Wednesday, February 6, 2013

  Actual Average (WUND) Record (WUND)
Temperature  
Mean Temperature 22 °F -  
Max Temperature 31 °F - - (-1)
Min Temperature 13 °F - - (-1)
Degree Days  
Heating Degree Days 43    
Moisture  
Dew Point 18 °F    
Average Humidity 78    
Maximum Humidity 99    
Minimum Humidity 57    
Precipitation  
Precipitation 0.04 in - - ()
Sea Level Pressure  
Sea Level Pressure 30.01 in    
Wind  
Wind Speed 7 mph ()    
Max Wind Speed 14 mph    
Max Gust Speed -    
Averages and records for this station are not official NWS values.
T = Trace of Precipitation, MM = Missing Value Source: Averaged Metar Reports

Daily Weather History Graph

Daily Weather History Graph

Search for Another Location

Airport or City:

Astronomy

Feb. 06, 2013 Rise Set
Actual Time 7:29 AM AST 5:36 PM AST
Civil Twilight 6:59 AM AST 6:06 PM AST
Nautical Twilight 6:25 AM AST 6:40 PM AST
Astronomical Twilight 5:51 AM AST 7:14 PM AST
Moon 4:13 AM AST (2/6) 1:46 PM AST (2/6)
Length of Visible Light 11h 07m
Length of Day
10h 06m
Waning Crescent, 17% of the Moon is Illuminated
Feb 6
Waning Crescent
Feb 10
New
Feb 17
First Quarter
Feb 25
Full
Mar 4
Last Quarter

Hourly Weather History & Observations

Time (AST) Temp. Windchill Dew Point Humidity Pressure Visibility Wind Dir Wind Speed Gust Speed Precip Events Conditions
12:00 AM 18.3 °F 11.5 °F 8.6 °F 66% 30.04 in - NNE 4.6 mph - N/A   Unknown
1:00 AM 19.2 °F 11.3 °F 10.6 °F 69% 30.04 in - NNE 5.8 mph - N/A   Unknown
2:00 AM 20 °F - 11 °F 57% 30.02 in - North 6.9 mph - -  
2:00 AM 19.9 °F 11.1 °F 11.1 °F 69% 30.02 in - North 6.9 mph - N/A   Unknown
3:00 AM 19.2 °F 9.3 °F 9.7 °F 66% 30.01 in - North 8.1 mph - N/A   Unknown
4:00 AM 18.1 °F 7.1 °F 10.2 °F 71% 30.00 in - North 9.2 mph - N/A   Unknown
5:00 AM 17 °F - 11 °F 69% 30.00 in - North 9.2 mph - -  
5:00 AM 16.7 °F 5.3 °F 11.3 °F 79% 30.00 in - North 9.2 mph - N/A   Unknown
6:00 AM 16.3 °F 4.9 °F 11.8 °F 82% 30.01 in - North 9.2 mph - N/A   Unknown
7:00 AM 16.3 °F 4.9 °F 12.4 °F 84% 30.01 in - North 9.2 mph - N/A   Unknown
8:00 AM 15 °F - 10 °F 74% 30.02 in - North 9.2 mph - -  
8:00 AM 15.4 °F 3.8 °F 10.4 °F 80% 30.02 in - North 9.2 mph - N/A   Unknown
9:00 AM 15.4 °F 3.8 °F 9.9 °F 79% 30.04 in - North 9.2 mph - N/A   Unknown
10:00 AM 18.7 °F 9.5 °F 12.6 °F 77% 30.03 in - NNE 6.9 mph - N/A   Unknown
11:00 AM 23 °F - 15 °F 59% 30.04 in - NNE 6.9 mph - -  
11:00 AM 22.6 °F 14.3 °F 14.7 °F 72% 30.04 in - NNE 6.9 mph - N/A   Unknown
12:00 PM 27.1 °F 18.2 °F 19.0 °F 72% 30.01 in - ENE 9.2 mph - N/A   Unknown
1:00 PM 26.8 °F 19.3 °F 20.3 °F 77% 30.00 in - ENE 6.9 mph - N/A   Unknown
2:00 PM 26 °F - 20 °F 71% 29.99 in - ENE 6.9 mph - -  
2:00 PM 26.2 °F 18.6 °F 20.5 °F 79% 29.99 in - ENE 6.9 mph - N/A   Unknown
3:00 PM 27.1 °F 19.7 °F 21.7 °F 80% 29.99 in - East 6.9 mph - N/A   Unknown
4:00 PM 27.3 °F 22.0 °F 22.3 °F 81% 29.99 in - East 4.6 mph - N/A   Unknown
5:00 PM 28 °F - 24 °F 77% 29.98 in - SE 8.1 mph - -  
5:00 PM 28.2 °F 20.2 °F 23.5 °F 83% 29.98 in - SE 8.1 mph - N/A   Unknown
6:00 PM 28.9 °F 19.8 °F 24.8 °F 84% 29.99 in - SSE 10.4 mph - N/A   Unknown
7:00 PM 29.8 °F 19.8 °F 27.0 °F 89% 29.99 in - SSE 12.7 mph - N/A   Unknown
8:00 PM 31 °F - 28 °F 84% 29.98 in - SSE 13.8 mph - -  
8:00 PM 30.7 °F 20.4 °F 28.0 °F 90% 29.98 in - SSE 13.8 mph - N/A   Unknown
9:00 PM 31.6 °F 21.6 °F 29.8 °F 93% 29.98 in - SSE 13.8 mph - N/A   Unknown
10:00 PM 31.6 °F 21.6 °F 31.5 °F 99% 29.99 in - South 13.8 mph - N/A   Unknown
11:00 PM 28 °F - 27 °F 95% 30.00 in - NW 8.1 mph - -  
11:00 PM 27.7 °F 19.6 °F 27.1 °F 98% 30.00 in - NW 8.1 mph - 0.04 in   Unknown